Location: Baia Mare
(47.6567°N, 23.5850°E)
Time: 07:47:06
(UTC+02:00)

X-37B - Visible Passes

Search period start: 28 January 2022 00:00
Search period end: 07 February 2022 00:00
Orbit: 334 x 337 km, 45.0° (Epoch: 11 January)

Date Brightness Start Highest point End Pass type
(mag) Time Alt. Az. Time Alt. Az. Time Alt. Az.
28 Jan 2.6 18:25:22 10° S 18:27:01 14° SSE 18:28:15 12° ESE visible
28 Jan 3.8 19:59:21 10° WSW 19:59:29 11° WSW 19:59:29 11° WSW visible
29 Jan 1.8 18:44:46 10° SW 18:47:12 26° SSE 18:47:54 23° SE visible
30 Jan 1.1 19:04:47 10° WSW 19:07:29 39° S 19:07:32 39° SSE visible
31 Jan 1.6 19:25:03 10° WSW 19:27:08 38° SW 19:27:08 38° SW visible
01 Feb 1.2 18:10:13 10° WSW 18:12:55 39° SSE 18:15:30 11° E visible
01 Feb 2.8 19:45:26 10° W 19:46:43 23° WSW 19:46:43 23° WSW visible
02 Feb 0.9 18:30:29 10° WSW 18:33:15 49° S 18:35:07 18° ESE visible
02 Feb 3.7 20:05:53 10° W 20:06:20 13° WSW 20:06:20 13° WSW visible
03 Feb 1.0 18:50:52 10° W 18:53:36 45° S 18:54:45 27° SE visible
04 Feb 1.6 19:11:19 10° W 19:13:55 33° SSW 19:14:27 30° S visible
05 Feb 2.5 19:31:58 10° WSW 19:34:09 20° SSW 19:34:14 20° SSW visible
06 Feb 1.8 18:16:44 10° W 18:19:21 33° SSW 18:21:57 10° SE visible
06 Feb 3.5 19:53:42 10° SW 19:54:08 10° SW 19:54:08 10° SW visible
